Location: Rancho Del Sol Observatory
(38.7214°N, 120.6350°W)
Time: 15:25:08
(UTC-07:00)

Daily predictions for brighter satellites

Satellite Brightness Start Highest point End
(mag) Time Altitude Azimuth Time Altitude Azimuth Time Altitude Azimuth
Cosmos 2344 3.7 19:31:59 10° SSW 19:39:39 87° ESE 19:48:07 10° NE
NOAA 12 4.2 19:38:41 10° SSE 19:44:01 90° W 19:49:20 10° NNW
CZ-3C R/B 4.3 19:40:16 10° WSW 19:44:46 12° SW 19:47:38 10° SSW
Cosmos 2123 Rocket 4.2 19:38:57 10° N 19:45:09 55° E 19:51:15 10° SSE
H-2A R/B 3.7 19:42:40 10° SE 19:46:03 29° ENE 19:49:30 10° N
Cosmos 2297 4.2 19:45:04 10° S 19:50:17 38° ESE 19:55:32 10° NE
Cosmos 1707 4.3 19:48:37 10° NNW 19:52:17 41° W 19:55:56 10° SSW
Resurs 1-3 4.4 19:49:37 10° SE 19:53:31 32° ENE 19:57:24 10° N
Cosmos 1125 Rocket 3.8 19:53:04 10° S 19:57:59 45° ESE 20:02:56 10° NNE
FengYun 1-2 T 4.3 19:53:44 10° SSE 19:59:14 65° ENE 20:04:48 10° N
HJ-1C 3.4 19:58:28 10° SSE 20:01:49 65° ENE 20:05:13 10° N
Cosmos 1758 3.6 20:00:32 10° SSE 20:04:18 43° E 20:08:06 10° NNE
Cosmos 2082 Rocket 2.8 19:59:16 10° N 20:04:32 37° ENE 20:09:43 10° SE
SeaSat 1 2.5 20:00:29 10° SE 20:05:22 67° ENE 20:10:17 10° NNW
GPS 2-05 Rocket1 3.7 20:03:04 10° SW 20:06:23 38° SSE 20:09:03 15° ESE
ALOS 2.3 20:04:09 10° SSE 20:08:49 89° WSW 20:13:31 10° NNW
Meteor 1-24 Rocket 4.1 20:04:12 10° NNW 20:09:42 69° W 20:15:23 10° S
SL-27 R/B 3.7 20:06:33 10° NNW 20:10:01 45° WSW 20:13:30 10° S
Cosmos 1953 2.5 20:07:27 10° SSE 20:11:22 49° E 20:15:18 10° NNE
Cosmos 1271 Rocket 3.9 20:08:14 10° SE 20:11:25 23° E 20:14:39 10° NE
Helios 1B rocket 3.2 20:12:13 10° NE 20:15:50 29° E 20:19:27 10° SSE
Timation 2 Rocket 4.5 20:10:15 10° N 20:16:08 39° ENE 20:20:52 14° ESE
Abrixas 2.3 20:13:43 10° NW 20:16:34 71° NNE 20:18:13 22° ESE
Tiangong 1 3.0 20:15:32 10° W 20:17:54 22° SSW 20:20:13 10° SSE
SAR-Lupe-4 4.4 20:15:34 15° SE 20:17:59 30° ENE 20:21:09 10° N
Okean 3 Rocket 3.5 20:14:37 10° N 20:19:03 83° E 20:23:27 10° S
Cosmos 1939 Rocket 4.4 20:20:09 17° E 20:21:14 19° ENE 20:24:07 10° NNE
Meteor 1-29 4.1 20:18:41 10° NE 20:21:33 23° E 20:23:14 17° SE
Cosmos 1076 Rocket 3.5 20:18:26 10° N 20:22:38 56° E 20:26:47 10° SSE
Cosmos 1447 Rocket 4.5 20:16:38 10° N 20:22:42 60° E 20:28:45 10° SSE
Cosmos 1674 3.3 20:20:35 10° N 20:24:06 35° ENE 20:26:29 18° SE
CZ-4B DEB 4.0 20:25:30 21° ENE 20:25:38 21° ENE 20:28:04 10° NNE
Cosmos 2173 Rocket 4.4 20:22:24 10° SSE 20:28:03 39° E 20:33:47 10° NNE
COSMOS 2487 2.7 20:25:33 10° N 20:29:00 47° ENE 20:30:55 23° SE
Lacrosse 5 rocket 2.5 20:29:20 10° NNW 20:32:40 26° NE 20:33:58 21° ENE
Helios 1A 3.2 20:29:48 16° SE 20:32:50 47° ENE 20:36:52 10° N
ISS -3.9 20:29:45 10° SW 20:32:59 67° SE 20:34:47 24° ENE
USA 186 1.4 20:36:22 42° NE 20:36:22 42° NE 20:38:08 10° N
SAR-Lupe-1 4.4 20:35:09 27° SE 20:36:43 44° ENE 20:40:09 10° N
Cosmos 1818 3.7 20:35:46 10° NNW 20:41:13 77° WSW 20:45:51 14° SSE
Meteor 1-4 Rocket 3.2 20:38:42 10° SSW 20:42:06 54° W 20:45:32 10° N
CZ-2D R/B 3.4 20:39:44 10° S 20:43:36 76° W 20:47:29 10° NNW
GP-B 3.0 20:39:46 10° SSE 20:44:10 69° E 20:48:35 10° N
Cosmos 1269 Rocket 3.9 20:38:57 10° NNW 20:44:15 84° ENE 20:48:47 14° SSE
Cosmos 1766 Rocket 3.5 20:39:58 10° N 20:44:28 72° E 20:48:15 14° SSE
Cosmos-2242 2.8 20:44:24 10° S 20:48:37 73° E 20:52:52 10° NNE
Cosmos 372 Rocket 4.1 20:45:12 10° SSW 20:50:18 78° WNW 20:55:29 10° NNE
Resurs 01 Rocket 2.7 20:47:51 10° S 20:52:04 46° W 20:56:21 10° NNW
Cosmos 158 Rocket 3.9 20:52:00 10° NNW 20:57:11 89° WSW 21:00:40 22° SSE
Cosmos 2016 Rocket 4.1 20:53:58 10° SSE 20:59:58 52° E 21:05:54 10° NNE
Cosmos 1356 Rocket 4.5 21:00:46 10° N 21:03:29 29° NE 21:03:29 29° NE
Cosmos 1470 2.9 21:01:11 10° SSW 21:05:09 72° W 21:09:08 10° N
Lacrosse 5 4.3 21:02:13 10° WNW 21:05:55 20° NNW 21:09:37 10° NNE
H-2A R/B (2) 3.7 21:03:53 10° SW 21:07:01 23° S 21:08:06 22° SSE
Cosmos 1733 3.4 21:04:19 10° SSW 21:08:09 69° W 21:12:02 10° N
USA 215 3.2 21:01:51 10° NE 21:08:18 60° SE 21:14:43 10° SSW
Cosmos 1725 Rocket 4.3 21:08:00 39° ESE 21:09:00 41° E 21:14:45 10° NNE
Cosmos 1833 Rocket 2.8 21:04:44 10° NNW 21:10:20 72° WSW 21:13:41 25° S
SPOT 5 4.4 21:12:49 24° NE 21:12:49 24° NE 21:16:22 10° NNE
Cosmos 1743 Rocket 3.4 21:11:19 10° N 21:15:47 74° E 21:16:07 69° ESE
CZ-3B DEB 4.3 21:08:56 10° W 21:16:17 25° NW 21:20:26 10° NNE
Cosmos 1500 Rocket 4.0 21:12:51 10° N 21:16:19 46° NE 21:16:19 46° NE
Cosmos 2100 Rocket 4.2 21:11:16 10° SSW 21:17:33 75° W 21:23:57 10° N
Cosmos 1340 Rocket 2.9 21:14:03 10° NNW 21:18:04 73° W 21:18:37 61° SSW
Cosmos 494 Rocket 4.1 21:13:12 10° N 21:18:11 49° ENE 21:18:14 49° ENE
SL-08 R/B 4.4 21:18:13 26° SSE 21:21:54 66° E 21:28:16 10° NNE
Cosmos 1184 Rocket 4.5 21:19:58 10° N 21:21:44 28° N 21:21:44 28° N
ATLAS 5 CENTAUR R/B 2.8 21:19:13 10° SW 21:23:43 45° NW 21:28:36 10° NNE
SJ-11-01 4.4 21:25:19 49° S 21:26:32 75° WSW 21:31:16 10° NNW
Envisat 3.2 21:26:09 36° S 21:28:12 69° WSW 21:33:17 10° NNW
Tsikada Rocket 4.1 21:24:21 10° N 21:30:26 53° E 21:30:36 53° E
USA 267 4.4 21:38:11 25° NE 21:40:04 29° NNE 21:45:30 10° NNW
Cosmos 1802 Rocket 4.4 21:34:14 10° SSW 21:40:16 62° W 21:46:24 10° N
H-2A R/B 3.9 21:42:52 20° NE 21:42:52 20° NE 21:45:03 10° NNE
ERS-1 Rocket 2.9 21:43:18 79° N 21:43:18 79° N 21:48:02 10° NNW
Gblst 52 Del rocket 4.1 21:37:25 10° SW 21:42:51 70° S 21:42:51 70° S
Cosmos 2151 4.3 21:43:26 10° N 21:45:52 33° N 21:45:52 33° N
Cosmos 2082 Rocket 3.8 21:43:36 10° NW 21:48:26 29° WSW 21:51:42 17° SSW
Cosmos 1842 Rocket 4.3 21:48:44 52° WNW 21:48:44 52° WNW 21:52:47 10° N
MetOp-A 4.5 21:51:41 55° NNE 21:51:41 55° NNE 21:55:59 10° N
ARGOS 4.1 21:55:40 38° NNE 21:55:40 38° NNE 21:59:11 10° N
Meteor 1-11 4.2 21:48:25 10° N 21:53:51 81° WNW 21:53:51 81° WNW
Cosmos 1939 Rocket 4.5 21:56:04 33° W 21:56:04 33° W 21:59:41 10° NNW
ISS -0.3 22:07:21 10° WNW 22:07:30 11° WNW 22:07:30 11° WNW
Lacrosse 5 rocket 3.8 22:08:28 10° WNW 22:09:41 18° WNW 22:09:41 18° WNW
Cosmos 2369 Rocket 4.2 22:41:59 20° N 22:41:59 20° N 22:43:43 10° NNE
USA 215 4.2 22:45:04 10° NE 22:51:06 42° NNW 22:57:08 10° W
